Weather History for KLAR - August, 2013

Change the Weather History Date:

Friday, August 2, 2013

  Actual Average Record
Temperature  
Mean Temperature 69 °F 64 °F  
Max Temperature 83 °F 80 °F 89 °F (2008)
Min Temperature 54 °F 49 °F 40 °F (1975)
Degree Days  
Heating Degree Days 0 2  
Month to date heating degree days 0 4  
Since 1 June heating degree days 125 314  
Since 1 July heating degree days 22 73  
Cooling Degree Days 4 1  
Month to date cooling degree days 6 2  
Year to date cooling degree days 100 49  
Since 1 June cooling degree days 100 49  
Growing Degree Days 18 (Base 50)    
Moisture  
Dew Point 42 °F    
Average Humidity 44    
Maximum Humidity 72    
Minimum Humidity 16    
Precipitation  
Precipitation 0.00 in 0.05 in 1.15 in (1971)
Month to date precipitation 0.11 0.10  
Year to date precipitation 5.41 7.02  
Sea Level Pressure  
Sea Level Pressure 29.87 in    
Wind  
Wind Speed 13 mph (SW)    
Max Wind Speed 25 mph    
Max Gust Speed 32 mph    
Visibility 10 miles    
Events      
T = Trace of Precipitation, MM = Missing Value Source: NWS Daily Summary

Daily Weather History Graph

Daily Weather History Graph

Search for Another Location

Airport or City:

Trip Planner

Search our weather history database for the weather conditions in past years. The results will help you decide how hot, cold, wet, or windy it might be!

Date:

Astronomy

Aug. 02, 2013 Rise Set
Actual Time 5:59 AM MDT 8:18 PM MDT
Civil Twilight 5:28 AM MDT 8:48 PM MDT
Nautical Twilight 4:49 AM MDT 9:27 PM MDT
Astronomical Twilight 4:07 AM MDT 10:09 PM MDT
Moon 2:21 AM MDT (8/2) 5:18 PM MDT (8/2)
Length of Visible Light 15h 20m
Length of Day
14h 18m
Waning Crescent, 15% of the Moon is Illuminated
Aug 2
Waning Crescent
Aug 6
New
Aug 14
First Quarter
Aug 20
Full
Aug 28
Last Quarter

Hourly Weather History & Observations

Time (MDT) Temp. Dew Point Humidity Pressure Visibility Wind Dir Wind Speed Gust Speed Precip Events Conditions
12:53 AM 57.9 °F 46.0 °F 65% 29.78 in 10.0 mi SSW 13.8 mph - N/A   Clear
1:00 AM 57.2 °F 46.4 °F 67% 30.16 in 10.0 mi SW 9.2 mph - N/A   Clear
1:53 AM 55.9 °F 46.0 °F 69% 29.82 in 10.0 mi SSE 8.1 mph - N/A   Clear
2:53 AM 54.0 °F 45.0 °F 72% 29.86 in 10.0 mi South 10.4 mph - N/A   Clear
3:53 AM 55.0 °F 45.0 °F 69% 29.86 in 10.0 mi South 6.9 mph - N/A   Clear
4:53 AM 55.0 °F 45.0 °F 69% 29.86 in 10.0 mi South 11.5 mph - N/A   Partly Cloudy
5:53 AM 54.0 °F 45.0 °F 72% 29.88 in 10.0 mi SSE 5.8 mph - N/A   Clear
6:53 AM 57.9 °F 46.0 °F 65% 29.88 in 10.0 mi North - - N/A   Clear
7:53 AM 64.9 °F 46.0 °F 50% 29.88 in 10.0 mi North - - N/A   Clear
8:53 AM 69.1 °F 48.0 °F 47% 29.89 in 10.0 mi West 11.5 mph - N/A   Clear
9:53 AM 73.0 °F 46.9 °F 39% 29.88 in 10.0 mi West 20.7 mph 27.6 mph N/A   Clear
10:53 AM 75.9 °F 44.1 °F 32% 29.87 in 10.0 mi West 19.6 mph 29.9 mph N/A   Clear
11:53 AM 78.1 °F 39.9 °F 25% 29.86 in 10.0 mi West 24.2 mph 31.1 mph N/A   Clear
12:53 PM 79.0 °F 39.0 °F 24% 29.84 in 10.0 mi WNW 21.9 mph 27.6 mph N/A   Partly Cloudy
1:53 PM 80.1 °F 34.0 °F 19% 29.84 in 10.0 mi West 16.1 mph 19.6 mph N/A   Scattered Clouds
2:53 PM 80.1 °F 35.1 °F 20% 29.85 in 10.0 mi WNW 10.4 mph 21.9 mph N/A   Partly Cloudy
3:53 PM 80.1 °F 36.0 °F 20% 29.83 in 10.0 mi West 11.5 mph 18.4 mph N/A   Scattered Clouds
4:08 PM 82.4 °F 35.6 °F 19% 30.18 in 10.0 mi West 8.1 mph 17.3 mph N/A   Mostly Cloudy
4:53 PM 81.0 °F 32.0 °F 17% 29.83 in 10.0 mi West 13.8 mph 21.9 mph N/A   Scattered Clouds
5:53 PM 82.0 °F 32.0 °F 16% 29.83 in 10.0 mi West 17.3 mph 26.5 mph N/A   Mostly Cloudy
6:53 PM 80.1 °F 30.9 °F 17% 29.82 in 10.0 mi West 10.4 mph - N/A   Mostly Cloudy
7:53 PM 75.9 °F 36.0 °F 23% 29.82 in 10.0 mi SSW 5.8 mph - N/A   Mostly Cloudy
8:53 PM 72.0 °F 36.0 °F 27% 29.83 in 10.0 mi Calm Calm - N/A   Clear
9:53 PM 66.0 °F 54.0 °F 65% 29.87 in 10.0 mi SSE 12.7 mph - N/A   Partly Cloudy
10:53 PM 64.9 °F 53.1 °F 65% 29.86 in 10.0 mi SSE 13.8 mph - N/A   Clear
11:53 PM 64.0 °F 54.0 °F 70% 29.86 in 10.0 mi SSE 16.1 mph - N/A   Clear